| time (UTC) | temp C | wind direction | speed KPH | gust KPH | rain 1hr cm | rain 24hr cm | rain mn cm | humidity % | barometer mb |
| 20260506182022 | 20 | 302 | 3.2 | 12.9 | 0.00 | 0.00 | 0.00 | 64 | 1020.4 |
| 20260506181541 | 20 | 338 | 6.4 | 12.9 | 0.00 | 0.00 | 0.00 | 65 | 1020.3 |
| 20260506181020 | 21 | 308 | 6.4 | 12.9 | 0.00 | 0.00 | 0.00 | 63 | 1020.3 |
| 20260506180521 | 21 | 179 | 1.6 | 9.7 | 0.00 | 0.00 | 0.00 | 63 | 1020.3 |
| 20260506180048 | 20 | 253 | 3.2 | 9.7 | 0.00 | 0.00 | 0.00 | 63 | 1020.4 |
| 20260506175520 | 20 | 331 | 1.6 | 9.7 | 0.00 | 0.00 | 0.00 | 63 | 1020.3 |
| 20260506175023 | 20 | 255 | 1.6 | 9.7 | 0.00 | 0.00 | 0.00 | 63 | 1020.3 |
| 20260506174542 | 20 | 270 | 3.2 | 8.0 | 0.00 | 0.00 | 0.00 | 64 | 1020.4 |
| 20260506174020 | 20 | 26 | 3.2 | 8.0 | 0.00 | 0.00 | 0.00 | 64 | 1020.3 |
| 20260506173519 | 20 | 319 | 3.2 | 6.4 | 0.00 | 0.00 | 0.00 | 64 | 1020.3 |
| 20260506173038 | 20 | 329 | 3.2 | 8.0 | 0.00 | 0.00 | 0.00 | 63 | 1020.4 |
| 20260506172521 | 19 | 272 | 3.2 | 9.7 | 0.00 | 0.00 | 0.00 | 65 | 1020.5 |
| 20260506172021 | 19 | 324 | 3.2 | 9.7 | 0.00 | 0.00 | 0.00 | 65 | 1020.4 |
| 20260506171547 | 18 | 232 | 3.2 | 8.0 | 0.00 | 0.00 | 0.00 | 66 | 1020.4 |
| 20260506171022 | 18 | 323 | 3.2 | 8.0 | 0.00 | 0.00 | 0.00 | 65 | 1020.5 |
| 20260506170520 | 18 | 24 | 1.6 | 9.7 | 0.00 | 0.00 | 0.00 | 66 | 1020.5 |
| 20260506170034 | 18 | 244 | 1.6 | 9.7 | 0.00 | 0.00 | 0.00 | 68 | 1020.5 |
| 20260506165521 | 18 | 263 | 3.2 | 9.7 | 0.00 | 0.00 | 0.00 | 67 | 1020.4 |
| 20260506165019 | 18 | 229 | 3.2 | 9.7 | 0.00 | 0.00 | 0.00 | 67 | 1020.4 |
| 20260506164538 | 18 | 270 | 3.2 | 9.7 | 0.00 | 0.00 | 0.00 | 67 | 1020.5 |
| 20260506164022 | 18 | 206 | 4.8 | 9.7 | 0.00 | 0.00 | 0.00 | 67 | 1020.4 |
| 20260506163521 | 18 | 258 | 3.2 | 9.7 | 0.00 | 0.00 | 0.00 | 68 | 1020.5 |
| 20260506163100 | 17 | 260 | 1.6 | 12.9 | 0.00 | 0.00 | 0.00 | 70 | 1020.5 |
| 20260506162525 | 17 | 206 | 3.2 | 12.9 | 0.00 | 0.00 | 0.00 | 70 | 1020.4 |
| 20260506162022 | 17 | 197 | 3.2 | 9.7 | 0.00 | 0.00 | 0.00 | 72 | 1020.5 |
| 20260506161535 | 16 | 296 | 3.2 | 12.9 | 0.00 | 0.00 | 0.00 | 73 | 1020.6 |
| 20260506161018 | 16 | 243 | 3.2 | 12.9 | 0.00 | 0.00 | 0.00 | 74 | 1020.5 |
| 20260506160522 | 16 | 232 | 6.4 | 12.9 | 0.00 | 0.00 | 0.00 | 73 | 1020.5 |
| 20260506160034 | 16 | 316 | 4.8 | 12.9 | 0.00 | 0.00 | 0.00 | 74 | 1020.4 |
| 20260506155522 | 15 | 246 | 1.6 | 12.9 | 0.00 | 0.00 | 0.00 | 76 | 1020.6 |
| 20260506155021 | 15 | 268 | 4.8 | 12.9 | 0.00 | 0.00 | 0.00 | 75 | 1020.6 |
| 20260506154550 | 15 | 106 | 3.2 | 9.7 | 0.00 | 0.00 | 0.00 | 76 | 1020.5 |
| 20260506154021 | 15 | 251 | 3.2 | 9.7 | 0.00 | 0.00 | 0.00 | 76 | 1020.6 |
| 20260506153521 | 15 | 206 | 3.2 | 11.3 | 0.00 | 0.00 | 0.00 | 77 | 1020.5 |
| 20260506153050 | 15 | 325 | 1.6 | 11.3 | 0.00 | 0.00 | 0.00 | 78 | 1020.5 |
| 20260506152520 | 14 | 280 | 4.8 | 9.7 | 0.00 | 0.00 | 0.00 | 78 | 1020.6 |
| 20260506152023 | 14 | 180 | 3.2 | 8.0 | 0.00 | 0.00 | 0.00 | 78 | 1020.6 |
| 20260506151536 | 14 | 274 | 1.6 | 8.0 | 0.00 | 0.00 | 0.00 | 79 | 1020.5 |
| 20260506151021 | 14 | 300 | 0.0 | 11.3 | 0.00 | 0.00 | 0.00 | 79 | 1020.7 |
| 20260506150520 | 14 | 183 | 3.2 | 11.3 | 0.00 | 0.00 | 0.00 | 79 | 1020.4 |
| 20260506150035 | 14 | 279 | 0.0 | 8.0 | 0.00 | 0.00 | 0.00 | 80 | 1020.4 |
| 20260506145525 | 13 | 227 | 3.2 | 6.4 | 0.00 | 0.00 | 0.00 | 80 | 1020.5 |
| 20260506145020 | 13 | 244 | 1.6 | 6.4 | 0.00 | 0.00 | 0.00 | 81 | 1020.4 |
| 20260506144535 | 13 | 90 | 0.0 | 4.8 | 0.00 | 0.00 | 0.00 | 81 | 1020.4 |
| 20260506144020 | 13 | 285 | 1.6 | 4.8 | 0.00 | 0.00 | 0.00 | 81 | 1020.4 |
| 20260506143524 | 13 | 277 | 1.6 | 6.4 | 0.00 | 0.00 | 0.00 | 81 | 1020.4 |
| 20260506143056 | 13 | 304 | 1.6 | 6.4 | 0.00 | 0.00 | 0.00 | 81 | 1020.4 |
| 20260506142519 | 13 | 267 | 3.2 | 9.7 | 0.00 | 0.00 | 0.00 | 81 | 1020.2 |
| 20260506142020 | 13 | 275 | 0.0 | 9.7 | 0.00 | 0.00 | 0.00 | 81 | 1020.2 |
| 20260506141541 | 13 | 163 | 3.2 | 9.7 | 0.00 | 0.00 | 0.00 | 81 | 1020.2 |
| 20260506141020 | 13 | 265 | 1.6 | 6.4 | 0.00 | 0.00 | 0.00 | 81 | 1020.3 |
| 20260506140523 | 13 | 295 | 3.2 | 6.4 | 0.00 | 0.00 | 0.00 | 81 | 1020.2 |
| 20260506140038 | 13 | 282 | 1.6 | 6.4 | 0.00 | 0.00 | 0.00 | 81 | 1020.0 |
| 20260506135522 | 13 | 283 | 1.6 | 6.4 | 0.00 | 0.00 | 0.00 | 81 | 1020.0 |
| 20260506135023 | 13 | 291 | 1.6 | 6.4 | 0.00 | 0.00 | 0.00 | 81 | 1020.0 |
| 20260506134536 | 13 | 0 | 1.6 | 8.0 | 0.00 | 0.00 | 0.00 | 81 | 1020.0 |
| 20260506134022 | 13 | 299 | 1.6 | 8.0 | 0.00 | 0.00 | 0.00 | 81 | 1019.9 |
| 20260506133520 | 13 | 304 | 3.2 | 8.0 | 0.00 | 0.00 | 0.00 | 81 | 1019.8 |
| 20260506133037 | 13 | 265 | 3.2 | 8.0 | 0.00 | 0.00 | 0.00 | 81 | 1019.7 |
| 20260506132518 | 13 | 327 | 1.6 | 6.4 | 0.00 | 0.00 | 0.00 | 81 | 1019.9 |
| 20260506132019 | 13 | 267 | 1.6 | 6.4 | 0.00 | 0.00 | 0.00 | 81 | 1019.8 |
| 20260506131535 | 13 | 0 | 1.6 | 8.0 | 0.00 | 0.00 | 0.00 | 81 | 1019.8 |
| 20260506131023 | 13 | 232 | 3.2 | 8.0 | 0.00 | 0.00 | 0.00 | 81 | 1019.7 |
| 20260506130521 | 13 | 291 | 0.0 | 6.4 | 0.00 | 0.00 | 0.00 | 81 | 1019.6 |
| 20260506130039 | 13 | 291 | 0.0 | 6.4 | 0.00 | 0.00 | 0.00 | 81 | 1019.7 |
| 20260506125520 | 13 | 222 | 0.0 | 8.0 | 0.00 | 0.00 | 0.00 | 81 | 1019.7 |
| 20260506125020 | 13 | 205 | 1.6 | 9.7 | 0.00 | 0.00 | 0.00 | 80 | 1019.6 |
| 20260506124540 | 13 | 289 | 1.6 | 9.7 | 0.00 | 0.00 | 0.00 | 80 | 1019.6 |
| 20260506124020 | 13 | 247 | 3.2 | 9.7 | 0.00 | 0.00 | 0.00 | 80 | 1019.5 |
| 20260506123520 | 13 | 239 | 3.2 | 9.7 | 0.00 | 0.00 | 0.00 | 80 | 1019.6 |
| 20260506123037 | 13 | 249 | 1.6 | 9.7 | 0.00 | 0.00 | 0.00 | 80 | 1019.5 |
| 20260506122523 | 13 | 242 | 1.6 | 9.7 | 0.00 | 0.00 | 0.00 | 80 | 1019.6 |
| 20260506122021 | 13 | 246 | 3.2 | 9.7 | 0.00 | 0.00 | 0.00 | 80 | 1019.5 |
| 20260506121541 | 13 | 238 | 3.2 | 9.7 | 0.00 | 0.00 | 0.00 | 80 | 1019.5 |
| 20260506121021 | 13 | 232 | 1.6 | 6.4 | 0.00 | 0.00 | 0.00 | 81 | 1019.5 |
| 20260506120521 | 13 | 249 | 0.0 | 8.0 | 0.00 | 0.00 | 0.00 | 80 | 1019.5 |
| 20260506120035 | 13 | 237 | 3.2 | 8.0 | 0.00 | 0.00 | 0.00 | 80 | 1019.5 |
| 20260506115520 | 13 | 207 | 3.2 | 9.7 | 0.00 | 0.00 | 0.00 | 80 | 1019.4 |
| 20260506115021 | 13 | 251 | 1.6 | 9.7 | 0.00 | 0.00 | 0.00 | 80 | 1019.4 |
| 20260506114547 | 13 | 222 | 1.6 | 9.7 | 0.00 | 0.00 | 0.00 | 80 | 1019.3 |
| 20260506114021 | 13 | 236 | 1.6 | 8.0 | 0.00 | 0.00 | 0.00 | 80 | 1019.4 |
| 20260506113520 | 13 | 279 | 1.6 | 8.0 | 0.00 | 0.00 | 0.00 | 80 | 1019.3 |
| 20260506113040 | 13 | 251 | 3.2 | 8.0 | 0.00 | 0.00 | 0.00 | 80 | 1019.2 |
| 20260506112523 | 13 | 247 | 3.2 | 9.7 | 0.00 | 0.00 | 0.00 | 81 | 1019.3 |
| 20260506112023 | 13 | 227 | 3.2 | 9.7 | 0.00 | 0.00 | 0.00 | 80 | 1019.2 |
| 20260506111539 | 13 | 322 | 3.2 | 6.4 | 0.00 | 0.00 | 0.00 | 81 | 1019.2 |
| 20260506111022 | 13 | 279 | 1.6 | 6.4 | 0.00 | 0.00 | 0.00 | 80 | 1019.2 |
| 20260506110523 | 13 | 229 | 3.2 | 6.4 | 0.00 | 0.00 | 0.00 | 80 | 1019.2 |
| 20260506110036 | 13 | 247 | 1.6 | 4.8 | 0.00 | 0.00 | 0.00 | 81 | 1019.1 |
| 20260506105520 | 13 | 301 | 1.6 | 4.8 | 0.00 | 0.00 | 0.00 | 81 | 1019.2 |
| 20260506105021 | 13 | 253 | 1.6 | 6.4 | 0.00 | 0.00 | 0.00 | 81 | 1019.1 |
| 20260506104535 | 13 | 224 | 3.2 | 6.4 | 0.00 | 0.00 | 0.00 | 81 | 1018.9 |
| 20260506104020 | 13 | 265 | 1.6 | 6.4 | 0.00 | 0.00 | 0.00 | 81 | 1019.1 |
| 20260506103519 | 13 | 241 | 3.2 | 11.3 | 0.00 | 0.00 | 0.00 | 81 | 1019.0 |
| 20260506103040 | 13 | 231 | 1.6 | 11.3 | 0.00 | 0.00 | 0.00 | 81 | 1019.0 |
| 20260506102522 | 13 | 268 | 4.8 | 11.3 | 0.00 | 0.00 | 0.00 | 81 | 1018.9 |
| 20260506102021 | 13 | 193 | 1.6 | 12.9 | 0.00 | 0.00 | 0.00 | 81 | 1018.9 |
| 20260506101542 | 13 | 257 | 4.8 | 12.9 | 0.00 | 0.00 | 0.00 | 81 | 1018.9 |
| 20260506101020 | 13 | 266 | 4.8 | 11.3 | 0.00 | 0.00 | 0.00 | 81 | 1018.9 |
| 20260506100520 | 13 | 241 | 4.8 | 12.9 | 0.00 | 0.00 | 0.00 | 81 | 1018.9 |
| 20260506100240 | 13 | 208 | 4.8 | 12.9 | 0.00 | 0.00 | 0.00 | 81 | 1018.9 |
| 20260506095519 | 13 | 237 | 3.2 | 8.0 | 0.00 | 0.00 | 0.00 | 81 | 1018.9 |
| 20260506095022 | 13 | 232 | 1.6 | 6.4 | 0.00 | 0.00 | 0.00 | 81 | 1018.9 |
| 20260506094548 | 13 | 239 | 1.6 | 9.7 | 0.00 | 0.00 | 0.00 | 81 | 1018.9 |
| 20260506094019 | 13 | 318 | 3.2 | 9.7 | 0.00 | 0.00 | 0.00 | 81 | 1018.8 |
| 20260506093520 | 13 | 236 | 3.2 | 9.7 | 0.00 | 0.00 | 0.00 | 81 | 1018.8 |
| 20260506093036 | 13 | 270 | 3.2 | 12.9 | 0.00 | 0.00 | 0.00 | 81 | 1018.7 |
| 20260506092522 | 13 | 247 | 3.2 | 12.9 | 0.00 | 0.00 | 0.00 | 81 | 1018.7 |
| 20260506092021 | 13 | 250 | 3.2 | 9.7 | 0.00 | 0.00 | 0.00 | 81 | 1018.9 |
| 20260506091538 | 13 | 240 | 3.2 | 9.7 | 0.00 | 0.00 | 0.00 | 81 | 1018.8 |
| 20260506091020 | 13 | 218 | 4.8 | 9.7 | 0.00 | 0.00 | 0.00 | 82 | 1018.8 |
| 20260506090521 | 13 | 235 | 3.2 | 9.7 | 0.00 | 0.00 | 0.00 | 82 | 1018.9 |
| 20260506090038 | 13 | 229 | 3.2 | 9.7 | 0.00 | 0.00 | 0.00 | 82 | 1019.0 |
| 20260506085520 | 13 | 265 | 3.2 | 9.7 | 0.00 | 0.10 | 0.00 | 82 | 1018.9 |
| 20260506085020 | 13 | 259 | 3.2 | 9.7 | 0.00 | 0.10 | 0.00 | 82 | 1018.9 |
| 20260506084538 | 13 | 253 | 3.2 | 9.7 | 0.00 | 0.10 | 0.00 | 82 | 1018.9 |
| 20260506084020 | 13 | 210 | 3.2 | 9.7 | 0.00 | 0.10 | 0.00 | 82 | 1018.9 |
| 20260506083520 | 13 | 234 | 1.6 | 8.0 | 0.00 | 0.10 | 0.00 | 82 | 1018.8 |
| 20260506083038 | 13 | 303 | 1.6 | 8.0 | 0.00 | 0.10 | 0.00 | 82 | 1018.9 |
| 20260506082520 | 12 | 232 | 3.2 | 8.0 | 0.00 | 0.10 | 0.00 | 82 | 1018.8 |
| 20260506082020 | 12 | 241 | 3.2 | 9.7 | 0.00 | 0.10 | 0.00 | 82 | 1018.9 |
| 20260506081538 | 12 | 235 | 1.6 | 9.7 | 0.00 | 0.10 | 0.00 | 82 | 1018.9 |
| 20260506081020 | 12 | 236 | 4.8 | 9.7 | 0.00 | 0.10 | 0.00 | 82 | 1018.8 |
| 20260506080521 | 12 | 244 | 4.8 | 9.7 | 0.00 | 0.10 | 0.00 | 82 | 1018.8 |
| 20260506073524 | 12 | 303 | 1.6 | 9.7 | 0.00 | 0.28 | 0.00 | 83 | 1018.6 |
| 20260506073045 | 12 | 244 | 3.2 | 9.7 | 0.00 | 0.28 | 0.00 | 83 | 1018.5 |
| 20260506072520 | 12 | 170 | 1.6 | 9.7 | 0.00 | 0.28 | 0.00 | 83 | 1018.5 |
| 20260506072021 | 12 | 235 | 1.6 | 6.4 | 0.00 | 0.28 | 0.00 | 83 | 1018.5 |
| 20260506071540 | 12 | 233 | 1.6 | 8.0 | 0.00 | 0.28 | 0.00 | 83 | 1018.5 |
| 20260506071020 | 12 | 288 | 1.6 | 9.7 | 0.00 | 0.28 | 0.00 | 83 | 1018.5 |
| 20260506070520 | 12 | 249 | 3.2 | 9.7 | 0.00 | 0.28 | 0.00 | 83 | 1018.3 |
| 20260506062019 | 12 | 270 | 3.2 | 9.7 | 0.00 | 0.41 | 0.28 | 82 | 1018.1 |
| 20260506061538 | 12 | 232 | 4.8 | 9.7 | 0.00 | 0.41 | 0.28 | 81 | 1018.1 |
| 20260506061019 | 12 | 245 | 3.2 | 9.7 | 0.00 | 0.41 | 0.28 | 81 | 1018.0 |
| 20260506060520 | 13 | 250 | 1.6 | 12.9 | 0.00 | 0.41 | 0.28 | 81 | 1018.0 |
| 20260506051018 | 13 | 203 | 3.2 | 12.9 | 0.00 | 0.51 | 0.28 | 79 | 1017.6 |
| 20260506050523 | 13 | 265 | 4.8 | 12.9 | 0.00 | 0.51 | 0.28 | 79 | 1017.4 |
| 20260506045020 | 13 | 301 | 3.2 | 12.9 | 0.00 | 0.76 | 0.28 | 78 | 1017.4 |
| 20260506044544 | 13 | 293 | 4.8 | 11.3 | 0.00 | 0.76 | 0.28 | 77 | 1017.3 |
| 20260506044021 | 14 | 291 | 3.2 | 11.3 | 0.00 | 0.76 | 0.28 | 77 | 1017.3 |
| 20260506043520 | 14 | 253 | 4.8 | 11.3 | 0.00 | 0.76 | 0.28 | 77 | 1017.2 |
| 20260506043036 | 14 | 219 | 3.2 | 8.0 | 0.00 | 0.76 | 0.28 | 76 | 1017.1 |
| 20260506042521 | 14 | 274 | 3.2 | 11.3 | 0.00 | 0.76 | 0.28 | 76 | 1017.1 |
| 20260506042023 | 14 | 241 | 3.2 | 12.9 | 0.00 | 0.76 | 0.28 | 76 | 1017.0 |
| 20260506041539 | 14 | 223 | 4.8 | 12.9 | 0.00 | 0.76 | 0.28 | 76 | 1016.9 |
| 20260506041018 | 14 | 272 | 4.8 | 9.7 | 0.00 | 0.76 | 0.28 | 76 | 1016.9 |
| 20260506040520 | 15 | 255 | 3.2 | 9.7 | 0.00 | 0.76 | 0.28 | 75 | 1016.8 |
| 20260506040057 | 15 | 237 | 3.2 | 9.7 | 0.00 | 0.76 | 0.28 | 75 | 1016.7 |
| 20260506035522 | 15 | 236 | 4.8 | 11.3 | 0.00 | 0.76 | 0.28 | 75 | 1016.7 |
| 20260506035019 | 15 | 247 | 4.8 | 11.3 | 0.00 | 0.76 | 0.28 | 75 | 1016.7 |
| 20260506034538 | 15 | 253 | 4.8 | 11.3 | 0.00 | 0.76 | 0.28 | 75 | 1016.6 |
| 20260506034022 | 15 | 203 | 4.8 | 14.5 | 0.00 | 0.76 | 0.28 | 74 | 1016.5 |
| 20260506033520 | 15 | 234 | 3.2 | 14.5 | 0.00 | 0.76 | 0.28 | 74 | 1016.6 |
| 20260506033037 | 15 | 215 | 6.4 | 14.5 | 0.00 | 0.76 | 0.28 | 73 | 1016.5 |
| 20260506032520 | 15 | 227 | 3.2 | 16.1 | 0.00 | 0.76 | 0.28 | 73 | 1016.3 |
| 20260506032020 | 15 | 250 | 6.4 | 16.1 | 0.00 | 0.76 | 0.28 | 73 | 1016.1 |
| 20260506031553 | 15 | 217 | 8.0 | 16.1 | 0.00 | 0.76 | 0.28 | 73 | 1016.0 |
| 20260506031022 | 15 | 317 | 3.2 | 12.9 | 0.00 | 0.76 | 0.28 | 73 | 1016.1 |
| 20260506030522 | 15 | 234 | 3.2 | 22.5 | 0.00 | 0.76 | 0.28 | 73 | 1015.9 |
| 20260506030034 | 15 | 213 | 6.4 | 22.5 | 0.00 | 0.76 | 0.28 | 72 | 1015.9 |
| 20260506025520 | 15 | 255 | 6.4 | 12.9 | 0.00 | 0.76 | 0.28 | 72 | 1016.0 |
| 20260506025021 | 15 | 224 | 4.8 | 14.5 | 0.00 | 0.76 | 0.28 | 72 | 1015.9 |
| 20260506024534 | 15 | 274 | 6.4 | 16.1 | 0.00 | 0.76 | 0.28 | 72 | 1015.8 |
| 20260506024021 | 15 | 255 | 6.4 | 19.3 | 0.00 | 0.76 | 0.28 | 72 | 1015.9 |
| 20260506023520 | 15 | 258 | 4.8 | 19.3 | 0.00 | 0.76 | 0.28 | 72 | 1015.7 |
| 20260506023038 | 16 | 235 | 4.8 | 16.1 | 0.00 | 0.76 | 0.28 | 72 | 1015.7 |
| 20260506022520 | 16 | 208 | 6.4 | 16.1 | 0.00 | 0.76 | 0.28 | 72 | 1015.5 |
| 20260506022020 | 16 | 222 | 4.8 | 14.5 | 0.00 | 0.76 | 0.28 | 72 | 1015.5 |
| 20260506021536 | 16 | 305 | 4.8 | 12.9 | 0.00 | 0.76 | 0.28 | 72 | 1015.6 |
| 20260506021022 | 16 | 215 | 3.2 | 12.9 | 0.00 | 0.76 | 0.28 | 72 | 1015.5 |
| 20260506020520 | 16 | 261 | 4.8 | 11.3 | 0.00 | 0.76 | 0.28 | 72 | 1015.5 |
| 20260506020034 | 16 | 256 | 6.4 | 12.9 | 0.00 | 0.76 | 0.28 | 72 | 1015.4 |
| 20260506015521 | 16 | 250 | 4.8 | 12.9 | 0.00 | 0.76 | 0.28 | 72 | 1015.4 |
| 20260506015021 | 16 | 278 | 3.2 | 16.1 | 0.00 | 0.76 | 0.28 | 72 | 1015.3 |
| 20260506014541 | 16 | 262 | 4.8 | 16.1 | 0.00 | 0.76 | 0.28 | 72 | 1015.2 |
| 20260506014020 | 16 | 254 | 6.4 | 16.1 | 0.00 | 0.76 | 0.28 | 71 | 1015.2 |
| 20260506013520 | 17 | 258 | 9.7 | 16.1 | 0.00 | 0.76 | 0.28 | 71 | 1015.1 |
| 20260506013044 | 17 | 262 | 8.0 | 16.1 | 0.00 | 0.76 | 0.28 | 71 | 1015.0 |
| 20260506012520 | 17 | 203 | 6.4 | 14.5 | 0.00 | 0.76 | 0.28 | 71 | 1015.0 |
| 20260506012022 | 17 | 269 | 4.8 | 16.1 | 0.00 | 0.76 | 0.28 | 71 | 1015.0 |
| 20260506011538 | 17 | 212 | 6.4 | 16.1 | 0.00 | 0.76 | 0.28 | 70 | 1014.9 |
| 20260506011020 | 17 | 175 | 8.0 | 16.1 | 0.00 | 0.76 | 0.28 | 70 | 1014.9 |
| 20260506010522 | 17 | 272 | 6.4 | 16.1 | 0.00 | 0.76 | 0.28 | 70 | 1015.0 |
| 20260506010041 | 17 | 208 | 4.8 | 12.9 | 0.00 | 0.76 | 0.28 | 70 | 1014.9 |
| 20260506005521 | 17 | 265 | 3.2 | 16.1 | 0.00 | 0.76 | 0.28 | 70 | 1015.0 |
| 20260506005020 | 17 | 229 | 6.4 | 16.1 | 0.00 | 0.76 | 0.28 | 70 | 1014.9 |
| 20260506004537 | 17 | 225 | 6.4 | 14.5 | 0.00 | 0.76 | 0.28 | 69 | 1014.9 |
| 20260506004022 | 17 | 187 | 3.2 | 14.5 | 0.00 | 0.76 | 0.28 | 69 | 1014.9 |
| 20260506003521 | 17 | 253 | 3.2 | 14.5 | 0.00 | 0.76 | 0.28 | 69 | 1014.9 |
| 20260506003038 | 17 | 228 | 4.8 | 14.5 | 0.00 | 0.76 | 0.28 | 68 | 1014.8 |
| 20260506002521 | 18 | 236 | 8.0 | 20.9 | 0.00 | 0.76 | 0.28 | 67 | 1014.7 |
| 20260506002020 | 18 | 189 | 4.8 | 20.9 | 0.00 | 0.76 | 0.28 | 66 | 1014.8 |
| 20260506001537 | 18 | 238 | 4.8 | 20.9 | 0.00 | 0.76 | 0.28 | 66 | 1014.8 |
| 20260506001020 | 18 | 258 | 8.0 | 20.9 | 0.00 | 0.76 | 0.28 | 67 | 1014.7 |
| 20260506000521 | 18 | 232 | 6.4 | 14.5 | 0.00 | 0.76 | 0.28 | 67 | 1014.8 |
| 20260506000035 | 18 | 218 | 8.0 | 17.7 | 0.00 | 0.76 | 0.28 | 66 | 1014.8 |
| 20260505235521 | 18 | 262 | 4.8 | 17.7 | 0.00 | 0.76 | 0.28 | 67 | 1014.8 |
| 20260505235022 | 18 | 245 | 6.4 | 17.7 | 0.00 | 0.76 | 0.28 | 67 | 1014.8 |
| 20260505234539 | 18 | 227 | 8.0 | 19.3 | 0.00 | 0.76 | 0.28 | 67 | 1014.9 |
| 20260505234021 | 18 | 223 | 6.4 | 19.3 | 0.00 | 0.76 | 0.28 | 67 | 1014.9 |
| 20260505233520 | 18 | 255 | 4.8 | 16.1 | 0.00 | 0.76 | 0.28 | 67 | 1014.9 |
| 20260505233042 | 18 | 75 | 6.4 | 16.1 | 0.00 | 0.76 | 0.28 | 68 | 1015.0 |
| 20260505232520 | 17 | 236 | 8.0 | 16.1 | 0.00 | 0.76 | 0.28 | 70 | 1015.0 |
| 20260505232022 | 17 | 246 | 9.7 | 16.1 | 0.00 | 0.76 | 0.28 | 69 | 1015.1 |
| 20260505231545 | 17 | 310 | 6.4 | 14.5 | 0.00 | 0.76 | 0.28 | 70 | 1015.1 |
| 20260505231021 | 17 | 276 | 1.6 | 12.9 | 0.00 | 0.76 | 0.28 | 71 | 1015.2 |
| 20260505230521 | 17 | 241 | 3.2 | 12.9 | 0.00 | 0.76 | 0.28 | 71 | 1015.2 |
| 20260505230036 | 17 | 215 | 8.0 | 11.3 | 0.00 | 0.76 | 0.28 | 70 | 1015.2 |
| 20260505225527 | 17 | 253 | 4.8 | 11.3 | 0.00 | 0.76 | 0.28 | 71 | 1015.2 |
| 20260505225020 | 17 | 278 | 3.2 | 11.3 | 0.00 | 0.76 | 0.28 | 70 | 1015.2 |
| 20260505224536 | 17 | 272 | 4.8 | 11.3 | 0.00 | 0.76 | 0.28 | 71 | 1015.2 |
| 20260505224021 | 17 | 251 | 4.8 | 16.1 | 0.00 | 0.76 | 0.28 | 70 | 1015.3 |
| 20260505223525 | 17 | 248 | 6.4 | 16.1 | 0.00 | 0.76 | 0.28 | 70 | 1015.3 |
| 20260505223050 | 17 | 267 | 6.4 | 16.1 | 0.00 | 0.76 | 0.28 | 69 | 1015.3 |
| 20260505222520 | 17 | 233 | 3.2 | 12.9 | 0.00 | 0.76 | 0.28 | 69 | 1015.3 |
| 20260505222020 | 18 | 220 | 6.4 | 12.9 | 0.00 | 0.76 | 0.28 | 68 | 1015.3 |
| 20260505221541 | 18 | 0 | 1.6 | 6.4 | 0.00 | 0.76 | 0.28 | 69 | 1015.3 |
| 20260505221022 | 18 | 106 | 3.2 | 8.0 | 0.00 | 0.76 | 0.28 | 69 | 1015.4 |
| 20260505220520 | 17 | 296 | 1.6 | 9.7 | 0.00 | 0.76 | 0.28 | 70 | 1015.3 |
| 20260505220041 | 17 | 241 | 3.2 | 12.9 | 0.00 | 0.76 | 0.28 | 70 | 1015.4 |
| 20260505215521 | 17 | 246 | 4.8 | 12.9 | 0.00 | 0.76 | 0.28 | 70 | 1015.4 |
| 20260505215020 | 17 | 244 | 4.8 | 11.3 | 0.00 | 0.76 | 0.28 | 70 | 1015.4 |
| 20260505214546 | 17 | 245 | 4.8 | 12.9 | 0.00 | 0.76 | 0.28 | 71 | 1015.4 |
| 20260505214024 | 17 | 250 | 1.6 | 12.9 | 0.00 | 0.76 | 0.28 | 71 | 1015.5 |
| 20260505213520 | 17 | 246 | 4.8 | 9.7 | 0.00 | 0.76 | 0.28 | 71 | 1015.5 |
| 20260505213043 | 17 | 238 | 3.2 | 9.7 | 0.00 | 0.76 | 0.28 | 71 | 1015.6 |
| 20260505212520 | 17 | 215 | 1.6 | 8.0 | 0.00 | 0.76 | 0.28 | 71 | 1015.6 |
| 20260505212020 | 17 | 212 | 1.6 | 8.0 | 0.00 | 0.76 | 0.28 | 71 | 1015.7 |
| 20260505211537 | 17 | 0 | 0.0 | 3.2 | 0.00 | 0.76 | 0.28 | 71 | 1015.7 |
| 20260505211021 | 17 | 263 | 0.0 | 4.8 | 0.00 | 0.76 | 0.28 | 71 | 1015.6 |
| 20260505210521 | 17 | 263 | 1.6 | 4.8 | 0.00 | 0.76 | 0.28 | 70 | 1015.6 |
| 20260505210038 | 17 | 244 | 1.6 | 8.0 | 0.00 | 0.76 | 0.28 | 70 | 1015.6 |
| 20260505205520 | 17 | 327 | 1.6 | 9.7 | 0.00 | 0.76 | 0.28 | 70 | 1015.6 |
| 20260505205020 | 17 | 286 | 3.2 | 9.7 | 0.00 | 0.76 | 0.28 | 70 | 1015.6 |
| 20260505204539 | 17 | 236 | 3.2 | 11.3 | 0.00 | 0.76 | 0.28 | 70 | 1015.7 |
| 20260505204021 | 17 | 253 | 1.6 | 11.3 | 0.00 | 0.76 | 0.28 | 69 | 1015.7 |
| 20260505203521 | 17 | 287 | 4.8 | 9.7 | 0.00 | 0.76 | 0.28 | 68 | 1015.7 |
| 20260505203037 | 17 | 290 | 3.2 | 9.7 | 0.00 | 0.76 | 0.28 | 69 | 1015.6 |
| 20260505202521 | 17 | 258 | 3.2 | 9.7 | 0.00 | 0.76 | 0.28 | 69 | 1015.7 |
| 20260505202021 | 17 | 284 | 4.8 | 9.7 | 0.00 | 0.76 | 0.28 | 69 | 1015.7 |
| 20260505201545 | 17 | 218 | 4.8 | 9.7 | 0.00 | 0.76 | 0.28 | 70 | 1015.7 |
| 20260505201020 | 17 | 286 | 4.8 | 9.7 | 0.00 | 0.76 | 0.28 | 71 | 1015.7 |
| 20260505200522 | 17 | 232 | 3.2 | 9.7 | 0.00 | 0.76 | 0.28 | 71 | 1015.7 |
| 20260505200041 | 17 | 284 | 3.2 | 9.7 | 0.00 | 0.76 | 0.28 | 71 | 1015.8 |
| 20260505195523 | 17 | 233 | 3.2 | 8.0 | 0.00 | 0.76 | 0.28 | 71 | 1015.9 |
| 20260505195021 | 17 | 267 | 1.6 | 11.3 | 0.00 | 0.76 | 0.28 | 71 | 1016.0 |
| 20260505194538 | 17 | 253 | 3.2 | 11.3 | 0.00 | 0.76 | 0.28 | 70 | 1015.9 |
| 20260505194021 | 17 | 282 | 4.8 | 9.7 | 0.00 | 0.76 | 0.28 | 70 | 1015.9 |
| 20260505193521 | 17 | 285 | 3.2 | 11.3 | 0.00 | 0.76 | 0.28 | 69 | 1016.0 |
| 20260505193041 | 17 | 265 | 3.2 | 14.5 | 0.00 | 0.76 | 0.28 | 70 | 1015.8 |
| 20260505192524 | 17 | 276 | 3.2 | 14.5 | 0.00 | 0.76 | 0.28 | 70 | 1016.0 |
| 20260505192020 | 17 | 303 | 4.8 | 14.5 | 0.00 | 0.76 | 0.28 | 71 | 1015.9 |
| 20260505191541 | 17 | 266 | 6.4 | 14.5 | 0.00 | 0.76 | 0.28 | 70 | 1015.9 |
| 20260505191021 | 17 | 234 | 3.2 | 11.3 | 0.00 | 0.76 | 0.28 | 70 | 1015.8 |
| 20260505190520 | 17 | 291 | 4.8 | 14.5 | 0.00 | 0.76 | 0.28 | 71 | 1015.9 |
| 20260505190039 | 16 | 319 | 6.4 | 14.5 | 0.00 | 0.76 | 0.28 | 72 | 1015.8 |
| 20260505185522 | 16 | 277 | 4.8 | 12.9 | 0.00 | 0.76 | 0.28 | 73 | 1015.9 |
| 20260505185021 | 16 | 298 | 4.8 | 12.9 | 0.00 | 0.76 | 0.28 | 74 | 1015.9 |
| 20260505184536 | 16 | 304 | 6.4 | 16.1 | 0.00 | 0.76 | 0.28 | 74 | 1015.8 |
| 20260505184021 | 16 | 130 | 4.8 | 16.1 | 0.00 | 0.76 | 0.28 | 75 | 1015.9 |
| 20260505183520 | 16 | 289 | 6.4 | 16.1 | 0.00 | 0.76 | 0.28 | 75 | 1015.9 |
| 20260505183042 | 15 | 247 | 4.8 | 11.3 | 0.00 | 0.76 | 0.28 | 77 | 1015.8 |
| 20260505182520 | 15 | 297 | 3.2 | 12.9 | 0.00 | 0.76 | 0.28 | 77 | 1015.9 |